Theta_e
338 340 338 338 340 344 353 351 350 354 357 347 346 344 342 346 346 347 351 351 352 352 354 349 352 354 349 349 350 353 351 349 349 342 340 340 344 339 337 337 339 339 338
339 339 340 340 341 346 350 356 357 361 356 353 352 351 351 347 346 346 347 351 349 351 352 354 350 351 349 352 349 351 346 345 352 340 337 329 330 336 335 336 338 339 342
337 340 340 341 342 344 350 352 357 363 363 359 359 359 357 354 348 351 353 351 351 347 350 353 355 356 355 347 351 347 346 340 343 343 335 325 323 327 333 332 334 336 338
337 340 343 343 343 344 349 351 357 359 361 364 358 357 353 350 349 350 350 354 356 351 349 354 354 356 352 349 350 348 346 342 337 339 339 336 329 322 321 332 332 334 334
338 338 342 345 347 349 352 360 368 364 364 364 363 358 357 354 354 354 358 358 358 358 355 356 355 350 352 349 347 346 344 342 340 338 336 333 330 329 325 321 324 330 331
339 342 345 346 346 348 348 353 355 359 364 363 365 366 360 357 352 353 351 354 348 349 350 351 351 350 350 348 348 347 345 342 339 336 335 328 325 325 325 323 325 321 318
338 340 340 340 344 347 348 348 350 349 353 353 354 355 355 359 355 354 347 347 344 345 346 347 346 345 347 345 343 340 334 329 326 325 322 321 320 322 323 321 311 310 312
336 337 338 339 339 343 345 346 346 345 348 347 347 350 351 347 347 348 347 344 344 343 343 342 341 339 336 334 331 328 325 322 321 320 319 319 318 319 318 318 314 310 310
334 335 337 338 337 338 340 341 341 343 344 345 343 343 345 347 346 344 345 343 342 339 338 337 333 332 330 328 327 325 325 325 325 324 323 322 321 321 319 318 316 312 306
334 335 336 338 338 338 340 341 341 342 342 343 342 342 342 344 343 341 338 339 337 334 329 328 327 325 323 324 322 320 321 320 320 319 318 318 318 318 318 318 317 316 312
332 332 334 336 337 337 337 338 338 338 338 340 339 339 336 337 336 335 335 333 330 331 329 329 327 325 324 324 322 322 321 320 320 320 317 319 320 318 320 320 320 317 316
332 332 333 335 334 335 335 334 335 335 337 340 336 333 331 331 332 333 334 334 332 331 330 328 328 327 327 328 327 325 325 321 320 320 319 317 322 320 322 321 320 319 319
331 332 332 332 332 335 334 333 335 335 335 337 335 333 329 328 328 328 328 328 326 327 328 328 327 327 327 326 326 324 321 319 316 314 312 311 312 310 314 313 312 312 312
331 331 331 332 333 334 333 333 334 335 335 332 332 329 329 329 328 329 328 328 327 325 321 319 318 318 318 322 321 321 320 318 316 315 314 312 311 310 310 310 309 309 308
329 329 329 332 332 332 332 333 332 333 333 330 329 327 326 328 328 327 326 324 323 320 318 315 314 315 312 310 317 318 317 317 318 316 312 312 312 312 312 310 311 309 306
326 327 330 330 329 330 330 330 330 331 333 329 329 328 329 324 324 323 320 320 319 316 313 311 311 311 307 305 308 315 315 314 313 311 311 309 308 310 310 310 309 309 307
326 327 328 329 328 328 329 329 329 330 328 324 322 321 320 318 317 318 318 318 317 313 311 311 312 310 308 303 304 311 312 312 313 311 309 305 305 305 306 310 310 310 309
326 328 328 328 329 329 328 328 328 325 322 319 318 319 318 318 318 318 317 320 321 318 315 313 314 312 305 303 302 307 312 312 312 311 310 307 305 302 303 310 308 310 310
328 328 329 328 328 328 328 326 324 323 322 321 320 321 321 319 317 318 319 321 320 319 317 315 314 313 310 301 300 306 316 311 309 308 308 307 306 300 300 308 306 308 308
328 326 327 326 327 328 329 325 321 320 319 318 319 320 321 320 319 318 321 322 320 318 314 314 315 310 313 301 300 303 308 312 307 307 306 302 303 300 300 304 307 304 305
328 327 327 325 327 328 327 322 320 318 320 320 319 321 321 319 318 319 320 319 318 318 317 315 316 315 314 308 300 300 309 306 311 307 309 308 300 300 300 299 306 303 301
325 326 324 324 327 327 324 320 319 321 322 322 320 321 321 320 320 320 321 320 319 317 317 315 314 315 313 306 300 300 301 303 308 308 310 310 302 300 301 300 300 299 301
322 324 323 321 324 324 321 318 319 320 320 318 319 321 322 320 318 320 319 317 319 314 315 310 306 309 311 312 302 302 303 304 306 309 306 302 299 298 301 298 299 300 307
320 322 323 321 320 322 321 321 321 320 318 319 319 321 321 320 316 315 313 311 312 312 312 312 311 312 312 310 309 310 312 304 308 306 309 307 303 301 305 306 307 308 309
323 325 322 321 320 322 322 323 322 323 322 322 320 321 318 318 314 308 309 310 304 306 310 308 310 308 308 305 299 299 306 305 302 300 308 309 307 306 306 307 307 307 306
325 323 323 321 320 322 322 323 324 324 323 322 321 316 316 313 315 312 308 294 297 296 295 295 302 304 298 296 296 296 297 296 294 302 306 305 305 304 304 303 304 305 305
Wind_Speed
12 12 11 13 11 13 9 10 10 9 5 6 7 7 7 5 5 6 7 7 5 6 6 7 6 6 6 7 8 4 5 3 2 3 4 3 10 3 3 2 4 5 6
16 13 11 11 12 10 11 9 9 8 7 5 4 5 5 7 6 7 8 9 8 7 6 5 6 6 5 7 9 6 4 3 2 3 1 4 5 3 2 4 3 4 2
15 15 13 11 11 12 11 11 10 7 8 8 4 4 4 4 6 5 3 7 10 11 7 6 5 4 4 6 6 6 6 6 4 6 3 2 4 3 2 2 4 6 4
4 9 12 12 11 11 14 14 13 13 10 11 8 8 6 6 6 6 6 6 8 7 8 7 6 5 5 6 4 4 5 7 8 4 4 1 0 2 4 1 3 4 4
7 8 14 12 11 8 7 5 3 8 9 8 9 7 7 6 6 5 3 7 3 4 2 1 1 3 4 6 6 6 7 5 4 5 3 1 1 4 7 10 4 0 2
8 11 12 15 11 8 8 9 8 7 6 3 2 3 5 4 5 5 5 3 5 7 11 11 8 6 5 5 5 5 6 6 7 5 4 1 1 3 8 6 3 6 6
12 12 14 11 13 14 13 11 12 11 8 7 5 5 4 2 3 2 7 7 6 6 7 8 9 8 9 10 9 10 12 10 7 8 6 6 5 4 2 3 3 3 3
13 13 12 11 11 14 15 14 14 14 14 13 14 12 13 7 7 9 6 6 6 8 10 11 11 12 12 10 10 9 9 10 8 10 7 4 3 4 4 3 3 1 4
14 14 15 13 11 10 11 12 12 11 11 10 11 10 9 11 9 10 9 8 9 9 11 13 13 13 13 12 11 8 7 7 6 6 4 2 2 4 3 3 3 2 2
16 15 13 14 13 12 10 9 9 9 9 10 9 8 9 10 10 10 11 12 12 12 13 13 12 12 10 9 8 7 6 7 5 3 5 4 3 4 4 3 3 3 1
16 14 13 14 15 13 13 13 11 11 9 10 11 11 10 10 10 9 10 10 10 10 11 10 10 10 8 7 7 6 5 5 5 4 4 4 3 2 1 0 1 1 1
15 13 13 14 14 14 14 10 8 8 8 10 12 11 10 9 9 9 8 10 10 10 10 10 7 9 6 5 4 4 7 11 9 10 10 12 8 8 5 4 4 3 2
15 13 11 12 11 16 13 10 8 8 9 10 10 9 9 9 10 11 11 10 11 10 9 8 6 6 7 7 6 7 10 10 11 10 10 10 9 9 7 8 8 8 7
13 10 8 13 11 16 13 8 8 9 11 9 10 8 10 10 9 9 9 8 8 9 10 10 11 12 12 9 9 8 8 8 8 7 8 9 8 8 8 8 8 9 9
13 9 9 12 13 13 12 6 8 9 10 10 10 9 8 9 10 10 10 9 8 9 10 10 10 9 11 10 8 8 9 8 6 8 9 7 9 10 10 5 6 7 8
10 8 15 13 13 11 10 8 6 6 8 10 8 9 9 11 10 11 11 10 9 9 10 9 10 9 9 15 16 9 8 9 11 10 9 9 15 13 7 7 9 6 5
10 11 11 11 9 9 7 9 8 10 9 11 11 11 11 10 9 8 7 7 6 7 7 8 8 9 8 14 13 10 8 8 7 8 8 8 9 11 9 8 2 1 5
11 14 11 9 10 9 8 9 9 8 10 11 11 10 9 7 5 5 4 6 6 7 7 7 6 6 6 8 11 9 7 5 5 6 7 7 8 9 10 8 10 6 6
10 11 10 9 8 10 10 11 10 8 9 8 8 6 4 6 3 4 5 6 6 5 6 6 6 5 5 10 11 8 5 7 6 6 6 6 5 8 13 7 6 6 6
12 11 10 9 9 9 10 10 10 9 10 8 6 4 5 4 3 6 6 5 5 5 6 6 5 6 4 8 10 10 6 6 6 5 4 5 5 5 7 6 6 6 7
11 9 9 9 8 10 9 10 11 10 8 5 4 4 5 6 6 7 4 5 6 5 4 4 4 4 4 4 8 11 6 6 2 6 1 4 3 1 7 4 5 4 5
10 11 10 9 9 8 9 11 10 6 3 3 6 6 6 7 7 6 4 5 5 4 5 6 6 6 5 5 2 6 6 7 5 4 4 4 8 2 6 6 8 11 10
9 9 9 9 8 8 8 10 8 6 4 2 2 3 7 8 5 5 5 4 3 4 2 6 7 5 3 2 4 2 2 5 4 5 6 10 11 14 5 8 10 8 3
10 10 11 11 9 10 9 7 8 6 6 5 5 6 5 4 7 6 6 4 4 4 4 4 4 3 3 6 6 5 3 1 4 9 6 6 9 11 1 3 3 2 4
10 9 10 10 10 8 7 7 7 6 3 5 5 6 4 4 7 5 5 6 4 4 4 4 5 5 5 4 2 3 4 4 5 6 4 3 5 5 5 4 3 4 4
11 9 9 10 10 10 9 8 8 7 5 5 2 2 4 4 5 5 6 12 7 4 8 5 6 5 6 1 1 3 5 8 9 4 3 4 5 4 4 4 5 6 6
Wind_Direction
173 159 181 167 170 168 170 172 176 188 198 183 185 205 233 229 225 229 238 255 253 228 196 220 237 230 242 265 283 224 244 265 207 340 291 232 240 216 289 309 296 319 13
157 167 177 176 177 174 179 183 184 184 197 210 203 220 207 224 228 216 223 216 218 232 233 224 228 242 260 236 243 271 276 260 272 228 325 297 297 271 18 18 349 327 348
160 164 177 186 187 182 182 187 196 202 197 213 213 221 243 284 288 279 240 211 208 211 211 226 237 268 275 275 288 255 254 259 265 236 216 280 246 14 345 2 344 320 309
288 176 171 183 194 195 186 193 191 194 204 196 211 244 253 253 228 235 250 251 212 200 215 210 217 226 242 255 283 307 268 268 252 287 216 85 194 252 287 272 267 229 261
47 86 70 46 48 37 45 79 188 194 202 201 210 230 247 255 294 255 335 319 79 357 250 268 88 326 330 319 336 307 295 294 308 296 288 109 212 225 257 281 291 107 342
85 71 67 49 38 31 26 41 45 34 36 30 325 240 283 334 314 351 356 354 74 39 38 34 30 15 5 348 354 4 13 17 23 9 2 69 40 289 263 240 288 12 59
80 74 67 59 31 30 52 61 46 40 37 43 33 28 33 356 322 347 48 49 49 46 42 35 32 37 29 39 39 43 54 57 65 62 64 62 43 332 11 72 68 30 18
103 94 94 89 53 39 42 57 55 47 51 54 48 46 48 62 53 47 62 61 49 53 45 54 50 48 52 56 61 71 72 79 76 75 69 65 49 33 24 60 147 114 32
115 111 100 88 87 68 55 58 55 57 51 57 59 53 51 51 52 48 56 55 48 59 54 59 66 64 67 70 68 70 75 73 73 74 79 74 38 53 33 42 28 115 106
122 112 110 112 108 102 106 107 84 83 70 67 63 62 58 48 58 60 59 63 70 72 72 71 67 64 58 57 68 72 67 75 61 54 69 52 32 34 16 38 7 32 67
120 118 109 102 101 85 73 59 55 55 57 63 61 55 59 63 70 73 76 83 88 89 88 83 85 83 86 84 88 85 81 75 65 54 50 45 42 19 340 6 339 354 17
129 114 104 108 106 96 80 77 73 69 78 76 81 75 77 72 69 74 75 83 78 83 83 90 83 102 98 107 99 96 76 66 57 44 39 35 35 24 27 26 16 358 356
110 111 110 110 90 103 98 86 91 93 74 79 88 89 81 76 72 67 67 69 69 64 76 72 92 84 80 70 60 60 76 72 61 52 48 38 32 20 15 24 18 3 346
113 88 84 85 82 87 89 88 86 85 90 78 84 87 94 99 102 99 94 85 81 70 54 48 45 43 33 41 48 45 89 88 100 84 61 46 31 30 24 37 22 8 5
115 117 89 90 95 92 95 107 86 95 105 98 92 89 76 83 83 78 75 76 75 71 68 60 48 55 51 33 31 50 39 38 64 90 80 58 28 32 28 36 22 28 33
99 106 80 74 67 72 79 90 94 77 98 98 104 104 99 67 67 68 63 61 67 79 77 64 61 55 45 19 23 43 58 49 49 50 48 48 31 16 13 18 56 40 47
107 107 100 86 89 81 83 97 90 99 86 78 70 76 72 74 67 62 67 67 67 71 71 78 78 53 34 20 20 45 55 55 65 63 52 40 29 16 356 351 213 308 343
118 101 111 101 94 105 102 78 84 84 91 93 92 91 96 96 103 96 106 97 95 97 98 92 90 89 45 28 19 352 115 85 67 80 82 60 27 8 2 15 21 17 45
95 100 105 112 116 104 105 97 89 93 99 85 86 89 114 102 118 198 105 93 106 100 103 98 93 73 36 19 14 9 172 137 102 59 59 81 58 1 360 15 3 18 19
116 113 115 119 115 119 112 103 101 101 102 101 107 124 125 116 156 96 97 101 107 112 109 107 110 89 47 17 19 21 27 78 126 116 125 92 85 8 6 356 352 5 347
114 123 109 106 102 104 109 112 121 119 134 148 163 152 139 126 107 87 67 72 73 88 104 118 140 124 110 44 28 26 30 13 64 176 262 54 119 351 330 350 316 349 305
119 116 118 115 111 109 120 126 130 133 137 185 194 170 132 125 131 132 120 126 157 170 190 193 193 155 130 151 90 68 35 1 354 1 47 340 341 290 285 311 310 327 326
130 121 119 113 102 113 126 130 136 144 118 71 121 107 90 114 157 152 162 182 196 238 252 70 89 87 144 130 128 93 25 360 336 338 328 295 305 296 287 259 275 303 333
121 121 118 111 115 133 144 149 163 156 168 185 155 92 72 73 60 51 72 62 42 47 68 45 89 109 111 39 22 2 22 317 319 14 330 277 280 298 349 172 225 24 344
133 131 138 133 140 158 167 152 171 197 191 169 144 134 161 161 104 71 28 90 44 21 52 19 33 11 48 42 334 346 357 345 5 327 303 336 7 355 26 7 48 47 2
149 145 136 131 157 174 177 182 191 197 180 148 193 135 143 112 128 134 103 41 73 78 98 95 61 90 108 157 296 285 319 347 20 331 340 35 0 350 6 347 28 13 358